Regional Weather Roundup
Issued by NWS

Home | Current Version | Previous Version | Text Only | Print | Product List | Glossary Off
Versions: 1 2 3 4 5 6 7 8 9 10 11 12 13 14 15 16 17 18 19 20 21 22 23 24 25 26 27 28 29 30 31 32 33 34 35 36 37 38 39 40 41 42 43 44 45 46 47 48 49 50

000
ASUS43 KLSX 311607
RWRMO

WEATHER SUMMARY FOR MISSOURI
NATIONAL WEATHER SERVICE SPRINGFIELD MO
1100 AM CDT FRI OCT 31 2014

NOTE: "FAIR" INDICATES FEW OR NO CLOUDS BELOW 12,000 FEET WITH NO
       SIGNIFICANT WEATHER AND/OR OBSTRUCTIONS TO VISIBILITY.
       CURRENT SKY AND/OR WEATHER CONDITIONS ARE NOT AVAILABLE FOR
       CHILLICOTHE AND FARMINGTON.

MOZ001>031-035>038-043-044-053-054-311700-
...NORTHERN AND WESTERN MISSOURI...

CITY           SKY/WX    TMP DP  RH WIND       PRES   REMARKS
KANSAS CTY INT SUNNY     37  20  50 N16G24    30.50R WCI  28
KANSAS C DTWN  SUNNY     40  19  43 N12       30.51R
LEE`S SUMMIT   SUNNY     38  19  46 N16       30.49R WCI  29
ST JOSEPH      SUNNY     38  19  46 N12       30.53S
CHILLICOTHE      N/A     39  20  46 N9G18     30.49R
KIRKSVILLE     SUNNY     37  21  52 N15G26    30.43R WCI  28

$$
MOZ066>068-077>081-088>096-101>105-311700-
...SOUTHWEST MISSOURI...

CITY           SKY/WX    TMP DP  RH WIND       PRES   REMARKS
SPRINGFIELD    CLOUDY    44  32  62 N24G32    30.34R
JOPLIN         PTSUNNY   42  31  64 N17G26    30.42R

$$
MOZ032>034-039>042-045>050-055>058-069>072-311700-
...CENTRAL MISSOURI...

CITY           SKY/WX    TMP DP  RH WIND       PRES   REMARKS
COLUMBIA       SUNNY     40  21  46 N20G30    30.38R
JEFFERSON CITY SUNNY     40  18  41 N15G24    30.39R
ROLLA          SUNNY     40  26  57 NW18G29   30.31R
SEDALIA        LGT RAIN  41  18  39 N16       30.44R
WHITEMAN AFB   SUNNY     40  19  42 N17G29    30.44R
OSAGE BEACH    SUNNY     43  21  42 N9G22     30.37S

$$
MOZ051-052-059>065-311700-
...EAST CENTRAL MISSOURI...

CITY           SKY/WX    TMP DP  RH WIND       PRES   REMARKS
ST LOUIS INTL  MOSUNNY   43  23  45 NW20G31   30.28R
SPIRIT OF STL  MOSUNNY   41  22  46 N17G25    30.30R
ST CHARLES     MOSUNNY   42  24  49 N20G26    30.30R

$$
MOZ072>076-082>087-097>100-106>115-311700-
...SOUTH CENTRAL AND SOUTHEAST MISSOURI...

CITY           SKY/WX    TMP DP  RH WIND       PRES   REMARKS
CAPE GIRARDEAU CLOUDY    49  39  68 N20G28    30.17R
FARMINGTON     PTSUNNY  N/A N/A N/A NW21G29   30.23R
POPLAR BLUFF   CLOUDY    52  39  61 NW15      30.18R
WEST PLAINS    CLOUDY    49  35  58 N18G30    30.26R

$$



USA.gov is the U.S. government's official web portal to all federal, state and local government web resources and services.